Location: Waco, TX
(31.5480°N, 97.1670°W)
Time: 15:55:45
(UTC-05:00)

ISS - Pass Details

Date: 20 October 2018
Orbit: 403 x 408 km, 51.6° (Epoch: 17 October)

Event Time Altitude Azimuth Distance (km) Brightness Sun altitude
Rises 17:52:15 0° 298° (WNW) 2,327 0.7 11.2°
Reaches altitude 10° 17:54:43 10° 280° (W) 1,464 0.3 10.7°
Maximum altitude 17:57:07 19° 233° (SW) 1,038 -0.1 10.2°
Drops below altitude 10° 17:59:32 10° 185° (S) 1,456 -0.6 9.7°
Sets 18:01:59 0° 167° (SSE) 2,311 0.1 9.2°
